Tobias Bolanos Internatio, Costa Rica

5:11 PM CST on June 22, 2017 (GMT -0600)
Tobias Bolanos International

Weather History for MRPV - May, 2014

Change the Weather History Date:

Sunday, May 11, 2014

  Actual Average Record
Temperature  
Mean Temperature 75 °F -  
Max Temperature 84 °F 80 °F 86 °F (1998)
Min Temperature 66 °F 69 °F 65 °F (2017)
Cooling Degree Days 10    
Growing Degree Days 25 (Base 50)    
Moisture  
Dew Point 64 °F    
Average Humidity 70    
Maximum Humidity 94    
Minimum Humidity 47    
Precipitation  
Precipitation 0.00 in - - ()
Sea Level Pressure  
Sea Level Pressure 29.95 in    
Wind  
Wind Speed 7 mph ()    
Max Wind Speed 13 mph    
Max Gust Speed -    
Visibility 6.1 miles    
Events Fog , Rain , Thunderstorm    
Averages and records for this station are not official NWS values.
T = Trace of Precipitation, MM = Missing Value Source: Averaged Metar Reports

Daily Weather History Graph

Daily Weather History Graph

Search for Another Location

Airport or City:

Trip Planner

Search our weather history database for the weather conditions in past years. The results will help you decide how hot, cold, wet, or windy it might be!

Date:

Astronomy

May. 11, 2014 Rise Set
Actual Time 5:16 AM CST 5:49 PM CST
Civil Twilight 4:54 AM CST 6:11 PM CST
Nautical Twilight 4:28 AM CST 6:37 PM CST
Astronomical Twilight 4:01 AM CST 7:04 PM CST
Moon 3:16 PM CST (5/11) 2:43 AM CST (5/11)
Length of Visible Light 13h 17m
Length of Day
12h 33m
Waxing Gibbous, 89% of the Moon is Illuminated
May 11
Waxing Gibbous
May 14
Full
May 21
Last Quarter
May 28
New
Jun 5
First Quarter

Hourly Weather History & Observations

Time (CST) Temp. Heat Index Dew Point Humidity Pressure Visibility Wind Dir Wind Speed Gust Speed Precip Events Conditions
6:00 AM 69 °F - 62 °F 71% 29.87 in 6 mi East 8.1 mph - -   Mostly Cloudy
6:00 AM 69.8 °F - 60.8 °F 73% 30.01 in - East 8.1 mph - N/A   Clear
7:00 AM 75.2 °F - 60.8 °F 61% 30.01 in - ESE 8.1 mph - N/A   Clear
8:00 AM 77.0 °F - 60.8 °F 57% 30.03 in 6.2 mi ESE 8.1 mph - N/A   Mostly Cloudy
9:00 AM 78 °F - 62 °F 47% 29.88 in 6 mi East 6.9 mph - -   Scattered Clouds
9:00 AM 78.8 °F - 60.8 °F 54% 30.04 in 6.2 mi East 6.9 mph - N/A   Mostly Cloudy
10:00 AM 80.6 °F 81.5 °F 60.8 °F 51% 30.03 in 6.2 mi ENE 8.1 mph - N/A   Mostly Cloudy
11:00 AM 82.4 °F 82.9 °F 60.8 °F 48% 30.01 in 6.2 mi East 8.1 mph - N/A   Mostly Cloudy
11:50 AM 78.8 °F - 66.2 °F 65% 29.99 in 6.2 mi WNW 9.2 mph - N/A   Scattered Clouds
12:00 PM 79 °F - 66 °F 57% 29.80 in 6 mi WNW 9.2 mph - -   Scattered Clouds
12:00 PM 78.8 °F - 66.2 °F 65% 29.99 in 6.2 mi WNW 9.2 mph - N/A   Scattered Clouds
12:32 PM 77.0 °F - 68.0 °F 74% 29.98 in 6.2 mi SW 3.5 mph - N/A Rain Rain Showers
1:00 PM 71.6 °F - 69.8 °F 94% 29.98 in 5.0 mi WSW 6.9 mph - N/A Rain , Thunderstorm Rain Showers
1:10 PM 71.6 °F - 68.0 °F 88% 29.97 in 6.2 mi West 6.9 mph - N/A Rain , Thunderstorm Thunderstorms and Rain
2:00 PM 69.8 °F - 66.2 °F 88% 29.96 in 6.2 mi West 2.3 mph - N/A Rain , Thunderstorm Light Rain
3:00 PM 70 °F - 65 °F 81% 29.80 in 6 mi West 3.5 mph - -   Overcast
3:00 PM 69.8 °F - 66.2 °F 88% 29.95 in 6.2 mi West 3.5 mph - N/A Fog Mostly Cloudy
3:30 PM 71.6 °F - 62.6 °F 73% 29.94 in 6.2 mi ENE 8.1 mph - N/A   Mostly Cloudy
4:00 PM 69.8 °F - 66.2 °F 88% 29.94 in 6.2 mi Variable 2.3 mph - N/A   Mostly Cloudy
5:00 PM 73.4 °F - 62.6 °F 69% 29.94 in 6.2 mi East 11.5 mph - N/A   Mostly Cloudy
6:00 PM 70 °F - 63 °F 72% 29.81 in 6 mi East 12.7 mph - -   Overcast
6:00 PM 73.4 °F - 62.6 °F 69% 29.96 in 6.2 mi East 9.2 mph - N/A   Mostly Cloudy